Home   Weather   Austin   Past weeks
Flag for USA

Past Weather in Austin, Texas, USA — Yesterday and Last 2 Weeks

Now
73 °F

Clear.


Feels Like: 77 °F
Forecast: 91 / 66 °F
Wind: No wind

Location: Camp Mabry / Austin City

Current Time: Oct 18, 2019 at 9:51:03 pm

Latest Report: Oct 18, 2019 at 8:51 pm


Visibility: 10 mi

Pressure: 29.74 "Hg

Humidity: 53%

Dew Point: 55 °F

Location of AustinLocation

Past Weather in Austin — Graph

°F

Austin Temperature Yesterday

Maximum temperature yesterday: 76 °F (at 4:51 pm)
Minimum temperature yesterday: 55 °F (at 3:51 am)
Average temperature yesterday: 63 °F

High & Low Weather Summary for the Past Weeks

 TemperatureHumidityPressure
High99 °F (Oct 10, 2:51 pm)90% (Oct 11, 4:58 am)30.29 "Hg (Oct 11, 4:58 am)
Low47 °F (Oct 11, 12:00 pm)21% (Oct 8, 4:51 pm)29.70 "Hg (Oct 18, 5:51 pm)
Average74 °F56%29.98 "Hg
* Reported Oct 3 7:51 pm — Oct 18 7:51 pm, Austin. Weather by CustomWeather, © 2019

Note: Actual official high and low records may vary slightly from our data, if they occured in-between our weather recording intervals... More about our weather records

Advertising

Austin Weather History for the Previous 24 Hours

Scroll right to see more
 ConditionsComfort  
Time TempWeatherWind HumidityBarometerVisibility
7:51 pm
Fri, Oct 18
76 °FClear.3 mph45%29.72 "Hg10 mi
6:51 pm78 °FSunny.5 mph43%29.70 "Hg10 mi
5:51 pm82 °FSunny.6 mph35%29.70 "Hg10 mi
4:51 pm83 °FSunny.7 mph32%29.71 "Hg10 mi
3:51 pm83 °FSunny.6 mph28%29.72 "Hg10 mi
2:51 pm81 °FSunny.5 mph32%29.75 "Hg10 mi
1:51 pm77 °FSunny.6 mph31%29.79 "Hg10 mi
12:51 pm75 °FSunny.No wind27%29.83 "Hg10 mi
11:51 am71 °FSunny.7 mph38%29.85 "Hg10 mi
10:51 am67 °FSunny.6 mph47%29.89 "Hg10 mi
9:51 am63 °FSunny.No wind60%29.90 "Hg10 mi
8:51 am56 °FSunny.No wind77%29.90 "Hg10 mi
7:51 am51 °FSunny.No wind86%29.89 "Hg10 mi
6:51 am53 °FClear.No wind77%29.89 "Hg10 mi
5:51 am53 °FClear.No wind77%29.89 "Hg10 mi
4:51 am52 °FClear.No wind80%29.89 "Hg10 mi
3:51 am53 °FClear.No wind77%29.90 "Hg10 mi
2:51 am55 °FClear.No wind72%29.90 "Hg10 mi
1:51 am57 °FClear.No wind67%29.90 "Hg10 mi
12:51 am58 °FClear.5 mph65%29.90 "Hg10 mi
11:51 pm
Thu, Oct 17
60 °FClear.No wind56%29.92 "Hg10 mi
10:51 pm62 °FClear.3 mph52%29.93 "Hg10 mi
9:51 pm63 °FClear.3 mph54%29.93 "Hg10 mi
Weather by CustomWeather, © 2019

See weather overview